Flag for U.S.A. Weather past 2 weeks in Missoula, Montana, U.S.A.

Now
61 °F

Sunny.


Feels Like: 61 °F
Forecast: 43 / 82 °F
Wind: 3 mph from North

Location: Missoula International Airport

Current Time: Jul 28, 2015 at 11:10:43 PM

Latest Report: Jul 28, 2015 at 9:53 PM


Visibility: 10 mi

Pressure: 30.22 "Hg (26.95 "Hg at 971m altitude)

Humidity: 52%

Dew point: 43 °F

Location of MissoulaLocation

Historic Weather in Missoula — Graph

°F

Missoula temperature yesterday

Maximum temperature yesterday: 62 °F (at 12:53 AM)
Minimum temperature yesterday: 47 °F (at 3:02 PM)
Average temperature yesterday: 54 °F

Past Weeks' High & Low Weather Summary

 TemperatureHumidityPressure
High90 °F (Jul 20, 3:53 PM)97% (Jul 28, 3:53 AM)30.27 "Hg (Jul 28, 3:53 AM)
Low47 °F (Jul 27, 3:02 PM)11% (Jul 21, 5:53 PM)29.69 "Hg (Jul 22, 5:53 PM)
Average66 °F51%29.95 "Hg
* Reported Jul 13 9:53 PM — Jul 28 9:53 PM, Missoula, Weather by CustomWeather, © 2015

Note: Actual official high and low records may vary slightly from our data, if they occured in-between our weather recording intervals... More about our weather records

Advertising

Missoula weather history for previous 24 hours

 ConditionsComfort  
Time TempWeatherWind HumidityBarometerVisibility
9:53 PM
Tue, Jul 28
61 °FSunny.3 mph52%30.22 "Hg10 mi
8:53 PM65 °FSunny.9 mph44%30.21 "Hg10 mi
7:53 PM72 °FOvercast.13 mph29%30.18 "Hg10 mi
6:53 PM73 °FSunny.13 mph28%30.17 "Hg10 mi
5:53 PM74 °FMostly cloudy.17 mph27%30.16 "Hg10 mi
3:53 PM73 °FPartly sunny.6 mph28%30.18 "Hg10 mi
2:53 PM70 °FPassing clouds.6 mph35%30.19 "Hg10 mi
1:53 PM68 °FPassing clouds.3 mph42%30.20 "Hg10 mi
12:53 PM66 °FSunny.No wind47%30.22 "Hg10 mi
11:53 AM62 °FSunny.6 mph56%30.24 "Hg10 mi
10:53 AM59 °FSunny.3 mph62%30.25 "Hg10 mi
9:53 AM55 °FSunny.3 mph77%30.27 "Hg10 mi
8:53 AM51 °FMore clouds than sun.No wind83%30.27 "Hg10 mi
7:53 AM50 °FOvercast.No wind93%30.25 "Hg10 mi
6:53 AM48 °FMostly cloudy.5 mph96%30.25 "Hg10 mi
5:53 AM49 °FMostly cloudy.3 mph93%30.23 "Hg10 mi
4:53 AM49 °FMostly cloudy.3 mph93%30.22 "Hg10 mi
3:53 AM49 °FOvercast.No wind97%30.22 "Hg10 mi
2:53 AM49 °FMostly cloudy.No wind93%30.20 "Hg10 mi
1:53 AM50 °FMostly cloudy.3 mph93%30.19 "Hg10 mi
12:53 AM48 °FMostly cloudy.No wind96%30.19 "Hg10 mi
11:53 PM
Mon, Jul 27
50 °FMostly cloudy.3 mph89%30.18 "Hg10 mi
Weather by CustomWeather, © 2015

See weather overviewHow to use our weather pages